QPF
0.02 0.04 0.06 0.07 0.04 0.02 0.01 0.00 0.00 0.01 0.01 0.02 0.03 0.04 0.05 0.05 0.04 0.03 0.02 0.02 0.04 0.10 0.19 0.24 0.24 0.16 0.13 0.11 0.08 0.06 0.05 0.03 0.02 0.02 0.02 0.01 0.00 0.00 0.00 0.00 0.00 0.00 0.00
0.01 0.02 0.03 0.05 0.05 0.03 0.01 0.01 0.01 0.03 0.05 0.08 0.10 0.11 0.11 0.09 0.09 0.06 0.04 0.04 0.07 0.11 0.15 0.24 0.27 0.24 0.23 0.21 0.15 0.12 0.11 0.07 0.03 0.04 0.05 0.03 0.02 0.00 0.00 0.00 0.00 0.00 0.00
0.00 0.01 0.01 0.03 0.04 0.04 0.02 0.01 0.01 0.05 0.12 0.17 0.22 0.23 0.21 0.20 0.16 0.11 0.10 0.10 0.09 0.09 0.11 0.17 0.21 0.21 0.22 0.25 0.24 0.19 0.17 0.13 0.07 0.04 0.05 0.05 0.05 0.04 0.01 0.00 0.00 0.00 0.00
0.00 0.00 0.00 0.01 0.02 0.03 0.03 0.02 0.03 0.10 0.18 0.24 0.30 0.35 0.38 0.36 0.28 0.22 0.17 0.13 0.10 0.08 0.08 0.09 0.11 0.13 0.14 0.15 0.16 0.13 0.14 0.16 0.12 0.08 0.05 0.06 0.06 0.07 0.05 0.02 0.00 0.00 0.00
0.00 0.00 0.00 0.01 0.01 0.02 0.03 0.04 0.08 0.16 0.22 0.31 0.42 0.52 0.51 0.43 0.33 0.21 0.15 0.12 0.08 0.05 0.05 0.05 0.06 0.07 0.07 0.07 0.08 0.08 0.09 0.11 0.14 0.13 0.12 0.11 0.11 0.08 0.07 0.06 0.03 0.01 0.00
0.00 0.01 0.00 0.01 0.01 0.02 0.04 0.08 0.13 0.20 0.31 0.40 0.50 0.53 0.54 0.46 0.35 0.21 0.11 0.08 0.06 0.04 0.03 0.02 0.04 0.04 0.04 0.03 0.04 0.04 0.04 0.06 0.09 0.11 0.12 0.13 0.13 0.11 0.08 0.06 0.05 0.03 0.01
0.00 0.01 0.01 0.03 0.05 0.08 0.12 0.17 0.22 0.30 0.39 0.43 0.44 0.39 0.38 0.33 0.27 0.19 0.11 0.07 0.04 0.03 0.02 0.01 0.03 0.02 0.02 0.02 0.02 0.01 0.02 0.03 0.05 0.07 0.09 0.13 0.13 0.12 0.11 0.09 0.07 0.05 0.02
0.01 0.02 0.03 0.06 0.12 0.17 0.22 0.28 0.34 0.36 0.38 0.39 0.38 0.33 0.28 0.24 0.20 0.15 0.11 0.07 0.04 0.02 0.02 0.01 0.01 0.01 0.01 0.01 0.01 0.01 0.01 0.01 0.02 0.04 0.08 0.12 0.13 0.12 0.11 0.09 0.10 0.09 0.07
0.02 0.04 0.07 0.09 0.13 0.18 0.22 0.27 0.31 0.31 0.32 0.35 0.33 0.27 0.24 0.21 0.17 0.13 0.09 0.04 0.02 0.01 0.01 0.01 0.00 0.00 0.00 0.00 0.00 0.00 0.01 0.01 0.01 0.02 0.05 0.06 0.07 0.09 0.09 0.11 0.11 0.11 0.09
0.05 0.06 0.09 0.10 0.10 0.15 0.21 0.23 0.26 0.29 0.30 0.30 0.28 0.24 0.19 0.15 0.13 0.10 0.06 0.03 0.02 0.01 0.01 0.00 0.00 0.00 0.00 0.00 0.00 0.00 0.00 0.01 0.01 0.02 0.03 0.04 0.05 0.08 0.09 0.10 0.12 0.11 0.09
0.09 0.09 0.11 0.12 0.13 0.15 0.20 0.24 0.25 0.25 0.24 0.24 0.24 0.22 0.16 0.11 0.08 0.06 0.04 0.02 0.01 0.00 0.00 0.00 0.00 0.00 0.00 0.00 0.00 0.00 0.00 0.00 0.01 0.01 0.02 0.03 0.04 0.06 0.07 0.09 0.09 0.10 0.10
0.15 0.15 0.14 0.18 0.19 0.17 0.16 0.17 0.23 0.21 0.19 0.20 0.21 0.19 0.13 0.08 0.06 0.04 0.02 0.01 0.00 0.00 0.00 0.00 0.00 0.00 0.00 0.00 0.00 0.00 0.00 0.00 0.01 0.01 0.02 0.03 0.05 0.06 0.07 0.08 0.08 0.11 0.12
0.20 0.24 0.27 0.24 0.22 0.17 0.15 0.19 0.22 0.21 0.20 0.18 0.18 0.16 0.11 0.09 0.07 0.04 0.02 0.01 0.01 0.01 0.00 0.00 0.00 0.00 0.00 0.00 0.00 0.00 0.00 0.00 0.00 0.00 0.01 0.02 0.03 0.06 0.08 0.08 0.08 0.11 0.13
0.25 0.28 0.32 0.29 0.27 0.21 0.21 0.21 0.18 0.17 0.18 0.17 0.17 0.16 0.12 0.08 0.06 0.04 0.02 0.02 0.01 0.01 0.01 0.01 0.01 0.00 0.00 0.01 0.01 0.01 0.00 0.00 0.00 0.00 0.00 0.01 0.02 0.04 0.06 0.06 0.07 0.11 0.13
0.19 0.20 0.19 0.20 0.22 0.21 0.18 0.18 0.15 0.15 0.15 0.16 0.16 0.15 0.13 0.09 0.06 0.04 0.03 0.03 0.03 0.02 0.02 0.02 0.02 0.01 0.01 0.01 0.01 0.01 0.00 0.00 0.00 0.00 0.00 0.00 0.01 0.01 0.02 0.03 0.05 0.08 0.11
0.10 0.09 0.08 0.07 0.09 0.10 0.09 0.09 0.09 0.10 0.14 0.15 0.13 0.11 0.10 0.08 0.06 0.04 0.04 0.03 0.03 0.03 0.03 0.03 0.04 0.04 0.03 0.03 0.02 0.01 0.01 0.01 0.01 0.01 0.01 0.01 0.00 0.01 0.01 0.01 0.02 0.04 0.06
0.03 0.03 0.03 0.02 0.02 0.03 0.02 0.02 0.03 0.04 0.05 0.06 0.05 0.04 0.03 0.03 0.03 0.03 0.02 0.02 0.02 0.02 0.03 0.03 0.03 0.03 0.05 0.04 0.01 0.02 0.03 0.04 0.04 0.03 0.02 0.01 0.00 0.00 0.00 0.01 0.01 0.02 0.02
0.00 0.00 0.00 0.01 0.01 0.01 0.01 0.01 0.01 0.01 0.01 0.01 0.01 0.01 0.01 0.00 0.01 0.01 0.01 0.01 0.01 0.01 0.01 0.02 0.02 0.03 0.03 0.03 0.02 0.02 0.03 0.05 0.06 0.05 0.03 0.02 0.01 0.01 0.01 0.01 0.01 0.01 0.01
0.00 0.00 0.00 0.00 0.00 0.00 0.00 0.00 0.00 0.00 0.00 0.00 0.00 0.00 0.00 0.00 0.00 0.00 0.00 0.00 0.00 0.00 0.00 0.01 0.01 0.02 0.02 0.02 0.02 0.04 0.07 0.09 0.10 0.06 0.05 0.04 0.03 0.03 0.02 0.01 0.02 0.03 0.01
0.00 0.00 0.00 0.00 0.00 0.00 0.00 0.00 0.00 0.00 0.00 0.00 0.00 0.00 0.00 0.00 0.00 0.00 0.00 0.00 0.00 0.00 0.00 0.00 0.01 0.01 0.02 0.02 0.03 0.05 0.09 0.12 0.12 0.08 0.05 0.06 0.05 0.04 0.02 0.01 0.02 0.04 0.02
0.00 0.00 0.00 0.00 0.00 0.00 0.00 0.00 0.00 0.00 0.00 0.00 0.00 0.00 0.00 0.00 0.00 0.00 0.00 0.00 0.00 0.00 0.00 0.00 0.00 0.01 0.01 0.03 0.04 0.06 0.07 0.10 0.11 0.09 0.08 0.07 0.09 0.04 0.03 0.02 0.01 0.02 0.01
0.00 0.00 0.00 0.00 0.00 0.00 0.00 0.00 0.00 0.00 0.00 0.00 0.00 0.00 0.00 0.00 0.00 0.00 0.00 0.00 0.00 0.00 0.00 0.00 0.00 0.01 0.01 0.02 0.03 0.05 0.07 0.09 0.09 0.08 0.07 0.07 0.09 0.06 0.04 0.02 0.02 0.02 0.01
0.00 0.00 0.00 0.00 0.00 0.00 0.00 0.00 0.00 0.00 0.00 0.00 0.00 0.00 0.00 0.00 0.00 0.00 0.00 0.00 0.00 0.00 0.00 0.00 0.00 0.00 0.01 0.01 0.02 0.03 0.04 0.06 0.05 0.06 0.07 0.06 0.05 0.04 0.03 0.03 0.02 0.02 0.01
0.00 0.00 0.00 0.00 0.00 0.00 0.00 0.00 0.00 0.00 0.00 0.00 0.00 0.00 0.00 0.00 0.00 0.00 0.00 0.00 0.00 0.00 0.00 0.00 0.00 0.00 0.00 0.00 0.01 0.01 0.02 0.03 0.05 0.07 0.08 0.06 0.04 0.03 0.02 0.01 0.02 0.01 0.01
0.00 0.00 0.00 0.00 0.00 0.00 0.00 0.00 0.00 0.00 0.00 0.00 0.00 0.00 0.00 0.00 0.00 0.00 0.00 0.00 0.00 0.00 0.00 0.00 0.00 0.00 0.00 0.00 0.01 0.01 0.01 0.01 0.01 0.03 0.04 0.04 0.03 0.03 0.03 0.03 0.02 0.02 0.03
0.00 0.00 0.00 0.00 0.00 0.00 0.00 0.00 0.00 0.00 0.00 0.00 0.00 0.00 0.00 0.00 0.00 0.00 0.00 0.00 0.00 0.00 0.00 0.00 0.00 0.00 0.00 0.00 0.00 0.01 0.00 0.01 0.01 0.03 0.03 0.03 0.03 0.04 0.03 0.02 0.02 0.02 0.02
MSLP
1011.42 1011.00 1010.56 1010.11 1009.68 1009.31 1009.06 1008.93 1008.98 1009.19 1009.56 1010.04 1010.60 1011.18 1011.74 1012.22 1012.62 1012.92 1013.13 1013.30 1013.43 1013.59 1013.77 1014.01 1014.31 1014.65 1015.01 1015.39 1015.75 1016.07 1016.35 1016.57 1016.74 1016.85 1016.90 1016.92 1016.90 1016.85 1016.78 1016.71 1016.63 1016.57 1016.54
1011.88 1011.42 1010.89 1010.33 1009.78 1009.27 1008.87 1008.62 1008.55 1008.68 1009.00 1009.48 1010.06 1010.69 1011.31 1011.88 1012.34 1012.70 1012.97 1013.15 1013.30 1013.45 1013.61 1013.82 1014.09 1014.40 1014.74 1015.11 1015.47 1015.80 1016.11 1016.36 1016.57 1016.73 1016.84 1016.91 1016.93 1016.92 1016.86 1016.78 1016.68 1016.58 1016.49
1012.21 1011.70 1011.12 1010.49 1009.85 1009.25 1008.75 1008.40 1008.26 1008.33 1008.62 1009.08 1009.67 1010.33 1011.00 1011.61 1012.12 1012.53 1012.82 1013.02 1013.16 1013.29 1013.42 1013.59 1013.81 1014.07 1014.38 1014.71 1015.05 1015.38 1015.69 1015.98 1016.23 1016.44 1016.62 1016.75 1016.84 1016.88 1016.87 1016.81 1016.71 1016.59 1016.47
1012.39 1011.86 1011.25 1010.58 1009.91 1009.27 1008.74 1008.35 1008.17 1008.22 1008.48 1008.93 1009.52 1010.19 1010.87 1011.49 1012.02 1012.43 1012.72 1012.91 1013.04 1013.13 1013.22 1013.34 1013.50 1013.71 1013.97 1014.26 1014.56 1014.88 1015.19 1015.49 1015.77 1016.03 1016.27 1016.47 1016.63 1016.74 1016.79 1016.78 1016.71 1016.60 1016.47
1012.47 1011.92 1011.31 1010.66 1010.00 1009.39 1008.87 1008.50 1008.33 1008.38 1008.64 1009.08 1009.65 1010.30 1010.95 1011.55 1012.05 1012.43 1012.69 1012.85 1012.93 1012.98 1013.02 1013.09 1013.21 1013.37 1013.58 1013.83 1014.10 1014.39 1014.69 1015.00 1015.30 1015.59 1015.87 1016.12 1016.34 1016.52 1016.63 1016.67 1016.65 1016.57 1016.45
1012.53 1011.98 1011.39 1010.78 1010.18 1009.63 1009.18 1008.87 1008.75 1008.82 1009.08 1009.50 1010.04 1010.63 1011.23 1011.76 1012.19 1012.51 1012.71 1012.81 1012.85 1012.85 1012.85 1012.88 1012.96 1013.09 1013.27 1013.49 1013.74 1014.01 1014.29 1014.58 1014.88 1015.18 1015.47 1015.75 1016.01 1016.23 1016.39 1016.49 1016.51 1016.47 1016.37
1012.65 1012.09 1011.54 1010.99 1010.48 1010.03 1009.68 1009.46 1009.39 1009.50 1009.75 1010.15 1010.63 1011.14 1011.64 1012.08 1012.41 1012.64 1012.76 1012.80 1012.78 1012.74 1012.71 1012.73 1012.79 1012.91 1013.07 1013.28 1013.52 1013.77 1014.03 1014.30 1014.57 1014.85 1015.12 1015.40 1015.66 1015.89 1016.08 1016.21 1016.28 1016.27 1016.21
1012.89 1012.33 1011.82 1011.35 1010.94 1010.59 1010.34 1010.20 1010.20 1010.32 1010.57 1010.91 1011.31 1011.73 1012.11 1012.43 1012.65 1012.77 1012.81 1012.78 1012.71 1012.65 1012.61 1012.62 1012.70 1012.83 1013.00 1013.21 1013.45 1013.68 1013.92 1014.15 1014.38 1014.61 1014.84 1015.08 1015.31 1015.53 1015.71 1015.86 1015.95 1015.99 1015.97
1013.28 1012.74 1012.27 1011.87 1011.54 1011.29 1011.12 1011.05 1011.08 1011.20 1011.42 1011.69 1011.99 1012.29 1012.55 1012.73 1012.84 1012.86 1012.82 1012.73 1012.63 1012.56 1012.53 1012.57 1012.67 1012.82 1013.03 1013.26 1013.49 1013.72 1013.93 1014.12 1014.29 1014.46 1014.62 1014.79 1014.96 1015.14 1015.31 1015.45 1015.56 1015.63 1015.66
1013.83 1013.29 1012.86 1012.51 1012.25 1012.06 1011.95 1011.91 1011.94 1012.04 1012.20 1012.39 1012.59 1012.76 1012.89 1012.96 1012.96 1012.89 1012.79 1012.66 1012.55 1012.48 1012.47 1012.54 1012.68 1012.87 1013.11 1013.35 1013.60 1013.81 1013.99 1014.14 1014.25 1014.34 1014.43 1014.52 1014.63 1014.75 1014.89 1015.03 1015.15 1015.25 1015.32
1014.48 1013.96 1013.55 1013.24 1013.01 1012.85 1012.75 1012.71 1012.72 1012.77 1012.85 1012.95 1013.04 1013.11 1013.13 1013.10 1013.01 1012.88 1012.73 1012.59 1012.48 1012.42 1012.43 1012.53 1012.70 1012.93 1013.18 1013.45 1013.69 1013.89 1014.04 1014.14 1014.20 1014.23 1014.24 1014.27 1014.31 1014.39 1014.49 1014.62 1014.75 1014.89 1015.00
1015.18 1014.68 1014.29 1013.99 1013.76 1013.59 1013.48 1013.40 1013.36 1013.35 1013.35 1013.37 1013.37 1013.34 1013.28 1013.18 1013.04 1012.87 1012.70 1012.55 1012.44 1012.40 1012.43 1012.54 1012.73 1012.96 1013.22 1013.48 1013.71 1013.89 1014.01 1014.08 1014.09 1014.07 1014.03 1014.01 1014.01 1014.05 1014.13 1014.26 1014.41 1014.57 1014.74
1015.87 1015.39 1015.00 1014.70 1014.46 1014.26 1014.10 1013.98 1013.88 1013.80 1013.74 1013.68 1013.61 1013.53 1013.42 1013.27 1013.11 1012.93 1012.75 1012.60 1012.49 1012.44 1012.47 1012.58 1012.74 1012.95 1013.19 1013.42 1013.62 1013.78 1013.87 1013.91 1013.90 1013.85 1013.80 1013.75 1013.73 1013.75 1013.83 1013.95 1014.12 1014.32 1014.52
1016.50 1016.04 1015.67 1015.35 1015.08 1014.84 1014.63 1014.45 1014.29 1014.16 1014.04 1013.94 1013.84 1013.72 1013.60 1013.44 1013.27 1013.09 1012.92 1012.76 1012.65 1012.58 1012.58 1012.64 1012.76 1012.92 1013.11 1013.28 1013.44 1013.56 1013.63 1013.66 1013.64 1013.59 1013.54 1013.49 1013.47 1013.50 1013.58 1013.72 1013.90 1014.11 1014.34
1017.05 1016.62 1016.25 1015.91 1015.61 1015.33 1015.08 1014.85 1014.65 1014.49 1014.34 1014.22 1014.11 1014.00 1013.88 1013.74 1013.58 1013.40 1013.23 1013.06 1012.92 1012.82 1012.77 1012.77 1012.81 1012.89 1012.99 1013.10 1013.20 1013.28 1013.33 1013.35 1013.34 1013.31 1013.28 1013.26 1013.26 1013.30 1013.39 1013.53 1013.71 1013.92 1014.16
1017.51 1017.11 1016.74 1016.39 1016.07 1015.76 1015.47 1015.22 1015.00 1014.83 1014.68 1014.57 1014.47 1014.38 1014.28 1014.16 1014.02 1013.86 1013.68 1013.50 1013.32 1013.17 1013.05 1012.96 1012.91 1012.89 1012.90 1012.93 1012.97 1013.00 1013.03 1013.05 1013.06 1013.06 1013.07 1013.08 1013.11 1013.16 1013.25 1013.38 1013.54 1013.74 1013.95
1017.88 1017.51 1017.15 1016.80 1016.46 1016.14 1015.84 1015.58 1015.37 1015.20 1015.08 1014.99 1014.92 1014.86 1014.79 1014.70 1014.58 1014.42 1014.24 1014.03 1013.82 1013.61 1013.41 1013.23 1013.08 1012.97 1012.88 1012.83 1012.80 1012.79 1012.80 1012.82 1012.85 1012.88 1012.93 1012.97 1013.02 1013.09 1013.17 1013.27 1013.39 1013.53 1013.70
1018.18 1017.83 1017.48 1017.13 1016.79 1016.47 1016.19 1015.94 1015.75 1015.61 1015.52 1015.47 1015.43 1015.41 1015.36 1015.29 1015.19 1015.03 1014.84 1014.62 1014.37 1014.11 1013.84 1013.59 1013.35 1013.14 1012.97 1012.84 1012.75 1012.70 1012.69 1012.71 1012.76 1012.82 1012.89 1012.96 1013.02 1013.08 1013.14 1013.19 1013.25 1013.33 1013.42
1018.42 1018.09 1017.75 1017.41 1017.08 1016.77 1016.50 1016.29 1016.13 1016.02 1015.97 1015.95 1015.95 1015.95 1015.93 1015.87 1015.78 1015.63 1015.44 1015.20 1014.93 1014.63 1014.32 1014.02 1013.72 1013.44 1013.21 1013.01 1012.87 1012.78 1012.74 1012.75 1012.80 1012.88 1012.96 1013.04 1013.11 1013.15 1013.17 1013.17 1013.16 1013.16 1013.17
1018.61 1018.28 1017.95 1017.61 1017.30 1017.01 1016.77 1016.59 1016.46 1016.39 1016.37 1016.38 1016.40 1016.42 1016.41 1016.37 1016.29 1016.15 1015.97 1015.74 1015.47 1015.17 1014.84 1014.51 1014.18 1013.86 1013.58 1013.33 1013.15 1013.02 1012.95 1012.94 1012.99 1013.06 1013.14 1013.22 1013.27 1013.30 1013.28 1013.23 1013.15 1013.07 1013.00
1018.73 1018.40 1018.07 1017.75 1017.45 1017.19 1016.98 1016.82 1016.73 1016.69 1016.69 1016.72 1016.75 1016.78 1016.79 1016.75 1016.68 1016.57 1016.41 1016.20 1015.96 1015.68 1015.37 1015.05 1014.71 1014.38 1014.07 1013.79 1013.57 1013.40 1013.30 1013.26 1013.27 1013.32 1013.40 1013.46 1013.51 1013.51 1013.46 1013.37 1013.24 1013.10 1012.96
1018.80 1018.47 1018.13 1017.81 1017.53 1017.29 1017.11 1016.98 1016.91 1016.89 1016.91 1016.94 1016.98 1017.01 1017.03 1017.01 1016.96 1016.87 1016.75 1016.59 1016.39 1016.16 1015.90 1015.61 1015.30 1014.97 1014.65 1014.35 1014.09 1013.88 1013.74 1013.66 1013.63 1013.66 1013.71 1013.76 1013.79 1013.79 1013.73 1013.62 1013.46 1013.28 1013.11
1018.82 1018.47 1018.13 1017.82 1017.55 1017.33 1017.16 1017.06 1017.01 1017.00 1017.02 1017.06 1017.10 1017.13 1017.15 1017.15 1017.13 1017.08 1017.00 1016.91 1016.78 1016.62 1016.42 1016.18 1015.91 1015.60 1015.29 1014.98 1014.69 1014.44 1014.24 1014.11 1014.05 1014.03 1014.05 1014.09 1014.12 1014.11 1014.06 1013.96 1013.81 1013.62 1013.43
1018.80 1018.43 1018.09 1017.78 1017.52 1017.31 1017.17 1017.08 1017.04 1017.04 1017.07 1017.10 1017.14 1017.18 1017.21 1017.22 1017.23 1017.22 1017.21 1017.18 1017.12 1017.03 1016.91 1016.74 1016.51 1016.25 1015.95 1015.63 1015.32 1015.03 1014.79 1014.61 1014.50 1014.44 1014.43 1014.46 1014.48 1014.49 1014.46 1014.39 1014.26 1014.09 1013.91
1018.76 1018.38 1018.03 1017.73 1017.47 1017.28 1017.15 1017.07 1017.04 1017.05 1017.07 1017.11 1017.15 1017.19 1017.23 1017.26 1017.30 1017.34 1017.38 1017.41 1017.43 1017.42 1017.37 1017.26 1017.09 1016.87 1016.59 1016.28 1015.96 1015.65 1015.37 1015.15 1014.99 1014.90 1014.86 1014.87 1014.90 1014.92 1014.92 1014.88 1014.80 1014.67 1014.51
1018.71 1018.33 1017.98 1017.68 1017.44 1017.25 1017.13 1017.06 1017.03 1017.04 1017.07 1017.11 1017.15 1017.20 1017.25 1017.30 1017.37 1017.44 1017.53 1017.62 1017.70 1017.76 1017.77 1017.73 1017.63 1017.45 1017.21 1016.92 1016.61 1016.29 1015.99 1015.73 1015.54 1015.42 1015.36 1015.36 1015.39 1015.42 1015.45 1015.44 1015.39 1015.30 1015.16
Thickness
5773 5778 5782 5785 5789 5792 5792 5792 5788 5784 5779 5773 5767 5762 5759 5758 5757 5756 5755 5753 5752 5751 5749 5746 5743 5741 5738 5736 5736 5734 5731 5728 5730 5726 5723 5725 5726 5728 5725 5724 5723 5722 5720
5762 5767 5773 5778 5782 5786 5789 5789 5787 5783 5778 5772 5767 5762 5758 5755 5753 5751 5749 5748 5748 5748 5746 5743 5740 5738 5735 5734 5733 5730 5727 5725 5724 5720 5714 5713 5716 5717 5721 5720 5718 5720 5717
5747 5754 5760 5767 5774 5779 5783 5786 5786 5782 5776 5770 5762 5756 5751 5747 5744 5742 5742 5742 5742 5743 5742 5741 5739 5736 5734 5731 5729 5727 5723 5719 5719 5720 5714 5708 5705 5712 5715 5717 5715 5714 5714
5736 5742 5748 5756 5763 5770 5777 5781 5781 5777 5772 5765 5757 5748 5742 5736 5736 5736 5735 5736 5736 5737 5737 5737 5736 5735 5733 5731 5729 5727 5724 5719 5714 5713 5712 5712 5709 5702 5702 5706 5710 5711 5710
5725 5731 5738 5744 5752 5760 5766 5770 5771 5767 5764 5759 5753 5744 5735 5731 5728 5727 5727 5728 5729 5731 5731 5732 5732 5731 5730 5728 5727 5725 5721 5719 5714 5710 5707 5703 5700 5700 5696 5694 5699 5702 5705
5715 5721 5727 5733 5739 5746 5752 5756 5756 5754 5751 5748 5743 5737 5731 5725 5719 5717 5719 5720 5722 5723 5725 5725 5726 5726 5726 5725 5723 5721 5717 5714 5712 5709 5706 5702 5698 5695 5693 5690 5690 5693 5700
5703 5708 5713 5717 5721 5727 5732 5737 5739 5737 5737 5734 5731 5727 5724 5720 5714 5712 5713 5713 5714 5715 5718 5719 5720 5720 5720 5719 5717 5715 5713 5710 5707 5706 5704 5701 5699 5697 5693 5688 5686 5686 5692
5690 5695 5698 5701 5705 5710 5714 5718 5721 5721 5722 5720 5717 5717 5716 5712 5707 5706 5707 5707 5708 5711 5713 5714 5715 5715 5713 5712 5710 5708 5706 5705 5702 5701 5699 5696 5696 5694 5690 5687 5682 5678 5680
5678 5683 5687 5689 5692 5696 5699 5703 5705 5707 5708 5707 5706 5705 5704 5702 5700 5701 5700 5702 5705 5706 5708 5709 5710 5709 5707 5706 5704 5701 5699 5698 5697 5695 5694 5692 5691 5689 5687 5685 5681 5675 5672
5667 5672 5675 5677 5680 5684 5687 5691 5693 5694 5695 5695 5695 5693 5693 5693 5693 5694 5695 5698 5701 5701 5702 5704 5705 5704 5701 5699 5696 5695 5693 5692 5690 5689 5687 5687 5686 5685 5683 5681 5679 5676 5673
5656 5660 5664 5668 5671 5674 5677 5679 5682 5683 5684 5685 5684 5683 5685 5687 5688 5689 5691 5694 5696 5697 5699 5699 5699 5698 5696 5694 5691 5689 5687 5686 5685 5685 5684 5683 5683 5681 5680 5679 5677 5675 5673
5648 5651 5655 5659 5662 5665 5667 5668 5670 5672 5674 5676 5677 5677 5680 5682 5683 5685 5688 5691 5692 5694 5696 5695 5693 5692 5690 5688 5686 5684 5682 5681 5679 5680 5680 5679 5679 5678 5677 5676 5675 5673 5673
5641 5643 5647 5650 5654 5658 5661 5663 5664 5666 5668 5672 5673 5674 5676 5678 5680 5683 5685 5687 5689 5689 5690 5689 5688 5686 5684 5683 5681 5680 5679 5677 5676 5676 5676 5676 5675 5673 5673 5673 5672 5671 5671
5633 5636 5639 5643 5648 5652 5655 5657 5660 5662 5665 5668 5668 5669 5671 5674 5677 5679 5681 5682 5683 5684 5684 5684 5683 5682 5679 5678 5677 5675 5675 5673 5672 5672 5672 5672 5671 5671 5671 5670 5670 5668 5667
5630 5632 5635 5639 5643 5647 5651 5654 5656 5659 5662 5663 5664 5665 5667 5670 5671 5673 5675 5676 5676 5677 5678 5678 5677 5676 5674 5674 5672 5671 5669 5668 5667 5667 5668 5668 5665 5663 5664 5665 5665 5664 5663
5629 5632 5635 5638 5642 5645 5647 5650 5653 5656 5658 5659 5659 5660 5662 5663 5664 5666 5667 5668 5668 5669 5670 5670 5670 5669 5668 5665 5662 5662 5662 5662 5661 5661 5662 5661 5659 5657 5655 5656 5656 5658 5659
5629 5633 5636 5638 5641 5644 5646 5648 5651 5654 5655 5655 5656 5657 5657 5657 5658 5659 5660 5659 5660 5660 5660 5661 5662 5661 5660 5656 5654 5652 5655 5657 5657 5657 5656 5654 5655 5651 5656 5653 5650 5652 5652
5633 5635 5638 5640 5643 5646 5648 5649 5650 5652 5652 5652 5652 5652 5652 5652 5651 5651 5650 5650 5651 5651 5651 5652 5652 5652 5651 5648 5648 5647 5650 5652 5651 5651 5651 5650 5651 5649 5650 5652 5652 5653 5652
5636 5638 5641 5643 5645 5646 5648 5650 5650 5650 5649 5647 5647 5647 5646 5644 5644 5643 5642 5642 5642 5642 5642 5641 5642 5642 5643 5641 5641 5641 5645 5645 5645 5646 5645 5644 5645 5640 5639 5642 5645 5646 5648
5640 5642 5644 5646 5646 5646 5647 5648 5647 5646 5644 5643 5642 5641 5640 5638 5636 5636 5635 5634 5634 5633 5632 5631 5631 5633 5633 5632 5634 5634 5639 5638 5638 5637 5637 5633 5634 5632 5632 5638 5641 5640 5643
5642 5644 5646 5645 5645 5646 5647 5646 5645 5642 5640 5639 5638 5637 5636 5634 5632 5631 5629 5627 5626 5625 5624 5623 5622 5622 5622 5624 5625 5626 5631 5631 5631 5630 5630 5629 5625 5626 5627 5629 5634 5632 5634
5644 5644 5646 5646 5646 5646 5646 5644 5641 5640 5639 5637 5636 5634 5633 5631 5629 5626 5623 5621 5619 5618 5617 5617 5616 5616 5616 5615 5616 5618 5619 5621 5624 5623 5623 5622 5618 5619 5620 5623 5622 5624 5626
5645 5646 5646 5647 5648 5648 5646 5644 5641 5640 5639 5638 5635 5634 5632 5628 5625 5622 5619 5616 5614 5612 5610 5609 5609 5609 5609 5609 5609 5610 5610 5611 5614 5614 5610 5611 5611 5612 5615 5614 5615 5619 5623
5647 5647 5648 5649 5649 5649 5647 5646 5644 5642 5642 5639 5637 5635 5633 5629 5624 5618 5615 5612 5609 5607 5604 5603 5602 5603 5603 5603 5604 5606 5606 5605 5606 5606 5603 5603 5604 5607 5607 5609 5612 5615 5615
5649 5650 5650 5649 5651 5652 5651 5650 5648 5646 5645 5643 5640 5637 5633 5629 5624 5619 5612 5609 5604 5600 5599 5598 5598 5597 5597 5593 5592 5596 5599 5599 5598 5600 5601 5601 5601 5601 5601 5603 5604 5606 5608
5652 5653 5653 5652 5654 5656 5655 5654 5651 5649 5648 5646 5642 5638 5635 5630 5627 5623 5616 5605 5603 5599 5596 5594 5594 5595 5590 5589 5589 5589 5589 5590 5591 5594 5593 5592 5592 5592 5593 5595 5596 5598 5600